Location: Home
(42.5358°N, 72.7383°W)
Time: 18:59:49
(UTC-05:00)

Transit 4A - Pass Details

Date: 08 December 2021
Orbit: 863 x 981 km, 66.8° (Epoch: 23 January)

Event Time Altitude Azimuth Distance (km) Brightness Sun altitude
Rises 03:58:38 0° 322° (NW) 3,632 - -34.1°
Reaches altitude 10° 04:01:20 10° 315° (NW) 2,697 - -33.6°
Maximum altitude 04:07:03 38° 250° (WSW) 1,448 - -32.5°
Exits shadow 04:12:38 11° 185° (S) 2,648 10.2 -31.5°
Drops below altitude 10° 04:12:51 10° 184° (S) 2,721 10.3 -31.4°
Sets 04:15:35 0° 177° (S) 3,667 11.1 -30.9°
